This demonstration page uses our WeatherBlox Daily Observations layout. Learn more.

Left ArrowRight Arrow

Hourly Observations for May 12, 2015

Temp ( °F °C ) Dew Point ( °F °C ) Humidity (%) Winds ( mph kmh ) Pressure ( in mb ) Visibility ( mi km ) Precip ( " mm )
12:51 am 00:51 Clear 63 17.2 18 -7.8 17 17 E 5 7 29.79 1009 10 16 0.00 0.00
1:51 am 01:51 Clear 66 18.9 24 -4.4 20 20 S 8 13 29.80 1009 10 16 0.00 0.00
2:51 am 02:51 Clear 66 18.9 30 -1.1 26 26 E 13 20 29.78 1008 10 16 0.00 0.00
3:51 am 03:51 Clear 68 20 39 3.9 35 35 ESE 12 19 29.78 1009 10 16 0.00 0.00
4:51 am 04:51 Clear 61 16.1 31 -0.6 32 32 S 10 17 29.81 1010 10 16 0.00 0.00
5:51 am 05:51 Sunny 63 17.2 36 2.2 37 37 SSE 9 15 29.83 1010 10 16 0.00 0.00
6:51 am 06:51 Sunny 65 18.3 40 4.4 40 40 SSE 12 19 29.85 1011 10 16 0.00 0.00
7:51 am 07:51 Sunny 69 20.6 44 6.7 41 41 SSE 12 19 29.86 1011 10 16 0.00 0.00
8:51 am 08:51 Sunny 73 22.8 46 7.8 38 38 S 6 9 29.85 1011 10 16 0.00 0.00
9:51 am 09:51 Sunny 78 25.6 42 5.6 28 28 SE 10 17 29.84 1011 10 16 0.00 0.00
10:51 am 10:51 Sunny 80 26.7 43 6.1 27 27 SSE 14 22 29.84 1011 10 16 0.00 0.00
11:51 am 11:51 Sunny 80 26.7 37 2.8 21 21 SSE 16 26 29.83 1010 10 16 0.00 0.00
12:51 pm 12:51 Sunny 80 26.7 36 2.2 20 20 SSE 12 19 29.80 1009 10 16 0.00 0.00
1:51 pm 13:51 Sunny 80 26.7 17 -8.3 9 9 SSW 17 28 29.80 1009 10 16 0.00 0.00
2:51 pm 14:51 Sunny 79 26.1 22 -5.6 12 12 S 15 24 29.79 1009 10 16 0.00 0.00
3:51 pm 15:51 Sunny 78 25.6 24 -4.4 13 13 S 18 30 29.79 1009 10 16 0.00 0.00
4:51 pm 16:51 Mostly Sunny 77 25 24 -4.4 14 14 SSW 15 24 29.80 1009 10 16 0.00 0.00
5:51 pm 17:51 Partly Cloudy 76 24.4 22 -5.6 13 13 SW 13 20 29.80 1009 10 16 0.00 0.00
6:51 pm 18:51 Partly Cloudy 75 23.9 22 -5.6 14 14 SSE 9 15 29.81 1009 10 16 0.00 0.00
7:51 pm 19:51 Mostly Cloudy 73 22.8 26 -3.3 17 17 S 16 26 29.82 1010 10 16 0.00 0.00
8:51 pm 20:51 Mostly Cloudy 71 21.7 27 -2.8 19 19 S 14 22 29.83 1010 10 16 0.00 0.00
9:51 pm 21:51 Clear 68 20 32 0 26 26 SSE 17 28 29.86 1011 10 16 0.00 0.00
10:51 pm 22:51 Clear 65 18.3 39 3.9 39 39 SE 18 30 29.88 1012 10 16 0.00 0.00
11:51 pm 23:51 Clear 63 17.2 39 3.9 41 41 ESE 9 15 29.89 1012 10 16 0.00 0.00

Powered by AerisWeather